Preview of NWS' New Version of Forecast
This preview is not operational and should not be used for support decisions.

Regional Weather Roundup (RWR)

Issued by National Weather Service (NWS)

                            
000
ASUS43 KDMX 181701
RWRIA 

WEATHER ROUNDUP FOR IOWA
NATIONAL WEATHER SERVICE DES MOINES IA
1200 PM CDT TUE JUN 18 2019

NOTE: "FAIR" INDICATES FEW OR NO CLOUDS BELOW 12,000 FEET WITH NO
SIGNIFICANT WEATHER AND/OR OBSTRUCTIONS TO VISIBILITY.

* - THESE STATIONS ARE NOT NWS STATIONS...THUS NOT UNDER NWS
QUALITY CONTROL.  THEY ALSO DO NOT REPORT WEATHER SUCH 
AS PRECIPITATION OR FOG.  

IAZ001>003-012>014-020>022-031>034-043>046-181800-
   NORTHWEST IOWA
  
CITY           SKY/WX    TMP DP  RH WIND       PRES   REMARKS
CARROLL *      PTSUNNY   63  63 100 NE10      29.98F                  
CHEROKEE *     PTSUNNY   65  60  83 NE5       30.00F                  
DENISON *      MOSUNNY   63  63 100 NE7       30.00F FOG              
LE MARS *      PTSUNNY   68  59  73 E7        30.00S                  
SHELDON *      SUNNY     72  48  43 NE7G15    29.98S                  
SIOUX CITY     CLOUDY    66  59  78 NE6       30.00S                  
SPENCER        MOSUNNY   73  54  51 N7        29.99F                  
STORM LAKE *   DRIZZLE   63  61  94 E8        29.97S                  
$$
 
IAZ055>058-069>071-079>083-090>094-181800-
   SOUTHWEST IOWA
  
CITY           SKY/WX    TMP DP  RH WIND       PRES   REMARKS
ATLANTIC *     PTSUNNY   70  70 100 E6        29.95S                  
AUDUBON *      CLOUDY    66  63  88 CALM      29.98S                  
CLARINDA *     PTSUNNY   77  66  69 N6        29.95F                  
COUNCIL BLFS * CLOUDY    72  72 100 N7        29.94S                  
CRESTON *      PTSUNNY   75  61  60 N3        29.96S                  
HARLAN  *      CLOUDY    70  66  88 N10       29.96S                  
LAMONI         SUNNY     75  61  61 VRB3      29.96F                  
RED OAK *      PTSUNNY   73  68  83 CALM      29.95S                  
SHENANDOAH *   CLOUDY    75  68  78 NE5       29.93S                  
$$
 
IAZ047>049-059>061-072>074-084-181800-
   CENTRAL IOWA
  
CITY           SKY/WX    TMP DP  RH WIND       PRES   REMARKS
AMES           CLOUDY    70  63  78 N7        29.97S                  
ANKENY *       MOSUNNY   73  66  78 VRB5      29.97S                  
BOONE *        DRIZZLE   66  66 100 NE7       29.97S                  
CHARITON *     SUNNY     77  63  61 VRB5      29.95F                  
DES MOINES     CLOUDY    74  62  66 VRB3      29.95F                  
GRINNELL*      PTSUNNY   74  62  67 CALM      29.98S                  
KNOXVILLE *    MOSUNNY   75  61  60 SE6       29.95F                  
MARSHALLTOWN   LGT RAIN  66  63  90 NW7       29.97R                  
NEWTON *       MOSUNNY   75  64  69 CALM      29.96S                  
PELLA *        SUNNY     77  61  58 CALM      29.97F                  
PERRY *        CLOUDY    69  68  97 CALM      29.97S                  
$$
 
IAZ004>006-015-016-023>025-035-036-181800-
   NORTH CENTRAL IOWA
  
CITY           SKY/WX    TMP DP  RH WIND       PRES   REMARKS
ALGONA *       MOSUNNY   66  63  88 N7        29.98F                  
CLARION *      CLOUDY    66  61  82 NE7       29.98F                  
ESTHERVILLE    MOSUNNY   67  54  63 NE7       29.99S                  
FORT DODGE *   CLOUDY    64  61  90 NE5       29.99F                  
MASON CITY     PTSUNNY   66  61  84 N8        30.00S                  
FOREST CITY *  CLOUDY    66  61  82 N3        29.99S                  
IOWA FALLS *   LGT RAIN  65  64  96 N3        29.99F                  
$$

IAZ007>011-017>019-026>030-037>042-050>054-066-181800-
   NORTHEAST IOWA
  
CITY           SKY/WX    TMP DP  RH WIND       PRES   REMARKS
CEDAR RAPIDS   PTSUNNY   70  62  76 NW5       29.97S                  
CHARLES CITY * PTSUNNY   66  61  82 NE6       29.98S                  
CLINTON *      CLOUDY    81  64  56 CALM      29.97S HAZE    HX  82   
DECORAH *      CLOUDY    64  61  88 CALM      29.97S                  
DUBUQUE        FAIR      72  61  68 CALM      29.97F                  
MONTICELLO *   FAIR      72  64  78 CALM      29.97S                  
OELWEIN *      FAIR      66  66 100 W6        29.98F                  
WATERLOO         N/A     68  64  87 SW5       29.96S                  
$$
 
IAZ064-065-067-068-078-181800-
   EAST CENTRAL IOWA
  
CITY           SKY/WX    TMP DP  RH WIND       PRES   REMARKS
DAVENPORT      FAIR      76  62  62 VRB5      29.98S                  
IOWA CITY      CLOUDY    74  62  66 CALM      29.97F                  
MT. PLEASANT * MOSUNNY   77  63  61 CALM      29.96F                  
MUSCATINE *    PTSUNNY   75  61  60 CALM      29.97S                  
QUAD CITIES    PTSUNNY   76  61  59 W5        29.96S                  
$$
 
IAZ062-063-075>077-085>089-095>099-181800-
   SOUTHEAST IOWA
  
CITY           SKY/WX    TMP DP  RH WIND       PRES   REMARKS
BURLINGTON     MOSUNNY   73  62  68 VRB3      29.96F                  
FAIRFIELD *    PTSUNNY   73  63  68 CALM      29.96S                  
FORT MADISON * MOSUNNY   73  64  73 CALM      29.96F                  
KEOKUK *       MOSUNNY   75  64  69 CALM      29.95F                  
OSKALOOSA *    FAIR      77  60  56 CALM      29.97F                  
OTTUMWA        SUNNY     74  62  66 S3        29.96F                  
WASHINGTON *   SUNNY     73  72  94 N5        29.97F                  
$$

ABBREVIATIONS USED IN REMARKS
   TC - TEMPERATURES IN CELSIUS
  WCI - WIND CHILL INDEX
   HX - HEAT INDEX
  VSB - VISIBILITY  
$$